カタログに戻る

STARLINK-31166

運用中通信VLEO
NORAD 58789·PAYLOAD·🇺🇸 United States

打ち上げ Jan 15, 2024 から Cape Canaveral Space Force Station

Loading…

次のパス (今後24時間)

TLE

最新Source: CelesTrak SupGP

元期: Sep 15, 2026, 02:11 UTC

1 58789C 24012C   26258.09145833  .00073935  00000+0  26787-2 0  2588
2 58789  43.0022 175.4651 0001150 285.1926  94.6629 15.27532928    10

AllMySatでSTARLINK-31166をリアルタイム追跡

Download on the App Store